Back to catalog

ATLAS 5 CENTAUR DEB

LostHEO
NORAD 47248·DEBRIS·🇺🇸 United States

Launched Oct 17, 2018 from Cape Canaveral Space Force Station

Loading…

Next Passes (next 24 hours)

TLE

StaleSource: Space-Track

Epoch: Dec 19, 2022, 07:58 UTC

1 47248U 18079EG  22353.33206142 -.00000180  00000-0  00000+0 0  9995
2 47248  11.0221 105.9497 5142003 211.3777 103.7136  2.09568276 15712

Track ATLAS 5 CENTAUR DEB in real time with AllMySat

Download on the App Store